Powrót do katalogu

COSMOS 2197

AktywnyMilitariaPO
NORAD 22034·PAYLOAD·🇷🇺 Russia

Wystrzelony Jul 13, 1992 z Plesetsk Cosmodrome

Loading…

Następne Przeloty (najbliższe 24 godziny)

TLE

ŚwieżeSource: Space-Track

Epoka: Sep 14, 2026, 04:47 UTC

1 22034U 92042A   26257.19978659  .00000034  00000-0  12729-3 0  9995
2 22034  82.5985 172.0722 0013919  71.9726  81.7077 12.64254212576531

Śledź COSMOS 2197 w czasie rzeczywistym z AllMySat

Download on the App Store